Other Public Products
Issued by NWS Grand Forks, ND

Home | Current Version | Previous Version | Text Only | Print | Product List | Glossary Off
Versions: 1 2 3 4 5 6 7 8 9 10 11 12 13 14 15 16 17 18 19 20 21 22 23 24 25 26 27 28 29 30 31 32 33 34 35 36 37 38 39 40 41 42 43 44 45 46 47 48 49 50

000
FPUS83 KFGF 272310
OPUFGF
PRAIRIE TO PINES WEATHER ROUNDUP
NATIONAL WEATHER SERVICE EASTERN NORTH DAKOTA/GRAND FORKS ND
600 PM CDT THU AUG 27 2015

 **SATELLITE DATA USED TO AUGMENT SKY COVER AT AUTOMATED STATIONS**
 *****  WEATHER ACROSS EASTERN NORTH DAKOTA  *****

CITY           SKY/WX    TMP DP  RH WIND       PRES   REMARKS
GRAND FORKS    PTSUNNY   77  64  64 S8        29.90F
GRAND FORKS AF PTSUNNY   77  65  66 S6        29.91F
GRAND CITY NWS   N/A     77 N/A N/A SW9         N/A
BUXTON         NOT AVBL
DEVILS LAKE    PTSUNNY   77  61  57 S7        29.91S
FARGO          CLOUDY    79  65  62 S7        29.92S
WAHPETON ARPT  CLOUDY    77  63  61 SE6       29.94S
$$

 *****  WEATHER ACROSS CENTRAL AND WESTERN NORTH DAKOTA  *****

CITY           SKY/WX    TMP DP  RH WIND       PRES   REMARKS
JAMESTOWN      MOSUNNY   78  67  68 S5        29.93F
BISMARCK       MOSUNNY   85  66  53 SE9       29.92S
MINOT          MOSUNNY   82  65  56 SE5       29.88F
MINOT AFB      MOSUNNY   83  67  58 S6        29.87F
GARRISON         N/A     83  62  49 CALM      29.90F
WILLISTON      MOSUNNY   86  62  44 S7        29.88F
DICKINSON      SUNNY     87  57  35 E12       29.91S
HETTINGER      SUNNY     84  59  42 SE14G20   29.94S
$$

 *****  OTHER OBSERVATIONS NORTHEAST NORTH DAKOTA  *****

CITY           SKY/WX    TMP DP  RH WIND       PRES   REMARKS
WALHALLA       FAIR      77  64  65 MISG      29.89F
LANGDON        FAIR      81  63  54 SW13      29.92S
CAVALIER       FAIR      77  63  61 S5        29.89F
GRAFTON        FAIR      79  63  57 S6        29.91S
CANDO          NOT AVBL
FORT TOTTEN      N/A     77  65  65 S6        29.95S
ROLLA            N/A     77  59  53 SW7       29.92F
RUGBY          FAIR      81  64  57 SW7       29.90F
 ***** THE ABOVE OBSERVATIONS ARE NON NWS ARE NOT QUALITY
        CONTROLLED AND MAY MIS-REPORT RAIN FOR SNOW...
$$

 *****  OTHER OBSERVATIONS SOUTHEAST NORTH DAKOTA *****

CITY           SKY/WX    TMP DP  RH WIND       PRES   REMARKS
COOPERSTOWN    NOT AVBL
VALLEY CITY    FAIR      77  72  83 S7        29.93F
OAKES            N/A     79  72  78 SW5       29.94S
GWINNER        FAIR      81  72  74 E3        29.94S
BUFFALO        NOT AVBL
WYNDMERE         N/A     77  70  78 S6          N/A
 ***** THE ABOVE OBSERVATIONS ARE NON NWS ARE NOT QUALITY
       CONTROLLED AND MAY MIS-REPORT RAIN FOR SNOW...
$$

  *****  WEATHER ACROSS NORTHERN MINNESOTA  *****

CITY           SKY/WX    TMP DP  RH WIND       PRES   REMARKS
FLAG ISLAND    MOSUNNY   72  57  60 SE3       29.92F HAZE
WARROAD        SUNNY     72  64  78 E5        29.94S
ROSEAU         SUNNY     77  64  65 SW5       29.93S
HALLOCK        MOSUNNY   79  63  57 S8        29.90F
THF RVR FALLS  PTSUNNY  N/A N/A N/A SW6       29.92S
HALSTAD        NOT AVBL
FOSSTON        MOSUNNY   75  63  64 S9        29.95S
BAUDETTE       SUNNY     75  60  59 S6        29.94S
WASKISH        SUNNY     75  64  69 S3        29.95S
CROOKSTON      MOSUNNY   77  64  65 SW9       29.93S
$$
  *****  WEATHER ACROSS CENTRAL AND WEST MINNESOTA  *****

CITY           SKY/WX    TMP DP  RH WIND       PRES   REMARKS
BEMIDJI        CLOUDY    74  64  69 S7        29.96S
PARK RAPIDS    CLOUDY    75  63  66 S7        29.96F
WADENA         CLOUDY    73  64  73 S7        29.97S
DETROIT LAKES  CLOUDY    73  64  73 S8        29.97F
MOORHEAD       CLOUDY    75  66  73 SE5       29.93F
FERGUS FALLS   CLOUDY    73  64  73 S6        29.94F
ELBOW LAKE     FAIR      73  66  80 S7        29.96F
MORRIS MN      CLOUDY    75  68  78 S3        29.95S
STAPLES        CLOUDY    72  63  73 S12       29.98S
WHEATON        CLOUDY    72  64  78 S3        29.95F
$$
  *****  WEATHER ELSEWHERE ACROSS MINNESOTA  *****

CITY           SKY/WX    TMP DP  RH WIND       PRES   REMARKS
DULUTH         MOSUNNY   68  56  65 SE10      30.02S
INTRNTL FALLS  SUNNY     73  59  61 CALM      29.95F
ELY            SUNNY     72  52  49 S7        30.00S
CLOQUET        PTSUNNY   72  55  56 S5        30.01F
BRAINERD       CLOUDY    72  62  71 S13       29.98F
HIBBING        PTSUNNY   72  58  61 SE7       30.00R
ALEXANDRIA     PTSUNNY   74  65  73 SW5       29.98F
SAINT CLOUD    PTSUNNY   73  62  68 S13       29.98F
MINNEAPOLIS    PTSUNNY   75  59  57 S12       30.01F
$$

  *****  WEATHER ACROSS SOUTH DAKOTA  *****

CITY           SKY/WX    TMP DP  RH WIND       PRES   REMARKS
SIOUX FALLS    TSTM      71  68  90 SE8       29.97F
BROOKINGS      CLOUDY    73  66  78 SE8       30.01R
WATERTOWN      CLOUDY    74  68  81 S5        29.97F
HURON          CLOUDY    77  70  79 E10       29.92S
SISSETON         N/A     76  67  73 SW8       29.93F
ABERDEEN       CLOUDY    75  67  76 W3        29.94F
MITCHELL       PTSUNNY   78  67  68 SE16      29.91S
PIERRE         LGT RAIN  70  67  90 N15       29.92F
MOBRIDGE       CLOUDY    79  69  71 S7        29.94S
RAPID CITY     PTSUNNY   78  57  48 NE10      30.01S
$$

  *****  SOME WEATHER IN NEARBY STATES *****

CITY           SKY/WX    TMP DP  RH WIND       PRES   REMARKS
GLASGOW MT     SUNNY     90  53  28 CALM      29.87F
GREAT FALLS MT CLOUDY    90  34  13 SW12      29.97F HAZE
CHEYENNE WY    CLOUDY    74  47  38 N15       30.18F
SCOTTSBLUFF NE CLOUDY    84  56  38 NE13      30.03F
OMAHA NE       CLOUDY    81  67  62 S18       29.91F
DES MOINES IA  PTSUNNY   74  60  61 SE14      30.02F
DAVENPORT IA   MOSUNNY   71  59  65 S5        30.10R
CHICAGO IL     PTSUNNY   70  52  52 E10       30.13S
EAU CLAIRE WI  CLOUDY    72  56  57 S10       30.06S
LA CROSSE WI   PTSUNNY   75  58  55 S8        30.08R
$$

  *****  SOME NATIONAL WEATHER *****

CITY           SKY/WX    TMP DP  RH WIND       PRES   REMARKS
LA GUARDIA NY  PTCLDY    76  54  46 NW15      30.05R
RALEIGH NC     MOCLDY    80  60  50 E8        30.07R
ATLANTA GA     MOSUNNY   81  62  52 E13       30.02S
NEW ORLEANS LA MOSUNNY   86  57  37 N8        29.95S
OKLAHOMA CITY  CLOUDY    89  68  49 SE13      29.98F HX  93
ALBUQUERQUE NM PTSUNNY   84  50  30 W12       30.18F
SALT LAKE CITY MOSUNNY   87  51  28 N8        30.14F
LOS ANGELES CA MOSUNNY   81  63  54 W12       29.90F
BOISE ID       SUNNY     92  39  15 NW9       30.05F
SEATTLE WA     MOSUNNY   82  42  24 W6        30.02F
$$

*** WEATHER ACROSS MANITOBA...SASKATCHEWAN AND ONTARIO ***
                ***ONTARIO***

CITY           SKY/WX    TMP DP  RH WIND       PRES   REMARKS
GERALDTON      MOSUNNY   66  52  59 S14       29.98S
THUNDER BAY    PTSUNNY   68  48  49 S10       30.00F
SIOUX LOOKOUT  CLOUDY    70  54  56 SW5       29.95R
TORONTO        PTSUNNY   66  52  59 N9        30.14S
BIG TROUT LK   PTSUNNY   59  57  94 NE3       29.87S
PICKLE LAKE    CLOUDY    72  52  49 W5        29.90F
DRYDEN         SUNNY     73  54  49 SW8       29.95S
KENORA         PTSUNNY   72  55  56 SW8       29.95S
$$
                *** MANITOBA***

CITY           SKY/WX    TMP DP  RH WIND       PRES   REMARKS
BRANDON        MOSUNNY   82  59  44 S7        29.87F
DAUPHIN        SUNNY     79  64  61 SE7       29.83F
ISLAND LAKE    MOSUNNY   66  52  59 NW3       29.87F
PILOT MOUND      N/A    N/A N/A N/A SW8         N/A
THE PAS        MOSUNNY   75  55  50 N7        29.81F
THOMPSON       MOSUNNY   66  50  55 W5        29.83S
WINNIPEG       MOSUNNY   79  63  57 S13       29.88F
LYNN LAKE      MOSUNNY   70  41  35 MISG      29.80F
GILLAM         PTSUNNY   63  48  59 NW3       29.84F
$$
                ***SASKATCHEWAN***

CITY           SKY/WX    TMP DP  RH WIND       PRES   REMARKS
ESTEVAN        MOSUNNY   86  57  37 S6        29.87F
KINDERSLEY     PTSUNNY   75  55  50 NW5       29.85F
LLOYDMINSTER   MOSUNNY   75  54  46 SW3       29.83F
PRINCE ALBERT  PTSUNNY   75  59  57 SW3       29.81F
REGINA         CLOUDY    81  66  61 SW3       29.83F
YORKTON        SUNNY     79  57  47 VRB2      29.83F
N. BATTLEFORD  SUNNY     77  52  41 CALM      29.84F


USA.gov is the U.S. government's official web portal to all federal, state and local government web resources and services.